Preview of NWS' New Version of Forecast
This preview is not operational and should not be used for support decisions.

Regional Weather Roundup (RWR)

Issued by National Weather Service (NWS)

                            
000
ASUS44 KMEG 232200
RWRTN 
TENNESSEE HOURLY STATE WEATHER ROUNDUP
NATIONAL WEATHER SERVICE MEMPHIS TN
500 PM CDT THU MAY 23 2019

TNZ002-004-019-021-049-052-054-088>092-232300-
WEST TENNESSEE
  
CITY           SKY/WX    TMP DP  RH WIND       PRES   REMARKS
MEMPHIS INTL   FAIR      89  66  46 S9        30.11F HX  91           
NWS MEMPHIS      N/A     92 N/A N/A MISG        N/A                   
JACKSON        FAIR      89  67  47 SW7       30.12F HX  92           
DYERSBURG      FAIR      88  70  55 W10       30.10F HX  93           
$$

TNZ008-025-027-028-033-062-065-066-232300-
NORTH MIDDLE TENNESSEE
  
CITY           SKY/WX    TMP DP  RH WIND       PRES   REMARKS
NASHVILLE      PTSUNNY   88  60  38 VRB7      30.14S                  
CLARKSVILLE    FAIR      86  68  54 S9        30.10F                  
SMYRNA         FAIR      87  65  47 SW12      30.14F                  
CROSSVILLE     FAIR      83  61  47 W10       30.22S                  
$$

TNZ061-075-076-078-094-096-097-232300-
SOUTH MIDDLE TENNESSEE
  
CITY           SKY/WX    TMP DP  RH WIND       PRES   REMARKS
$$

TNZ017-018-042-046-047-232300-
NORTHEAST TENNESSEE
  
CITY           SKY/WX    TMP DP  RH WIND       PRES   REMARKS
TRI CITIES     FAIR      85  60  42 W13       30.19S                  
$$

TNZ012-013-036-069-073-074-232300-
CENTRAL EAST TENNESSEE
  
CITY           SKY/WX    TMP DP  RH WIND       PRES   REMARKS
KNOXVILLE      CLOUDY    88  63  43 SW12      30.15F                  
OAK RIDGE      FAIR      90  64  42 VRB6      30.17F HX  91           
$$

TNZ083-085-099-232300-
SOUTHEAST TENNESSEE
  
CITY           SKY/WX    TMP DP  RH WIND       PRES   REMARKS
CHATTANOOGA    PTSUNNY   91  65  41 W7        30.15F HX  93           
$$

SKY/WX REPORTED AS FAIR MEANS FEW OR NO CLOUDS BELOW
12 THOUSAND FEET.